Location: Unspecified
(35.7250°N, 0.0000°E)
Time: 06:37:14
(UTC+00:00)

Vanguard 1 Rocket - Visible Passes

Search period start: 13 August 2020 00:00
Search period end: 23 August 2020 00:00
Orbit: 655 x 4222 km, 34.3° (Epoch: 12 August)

Date Brightness Start Highest point End Pass type
(mag) Time Alt. Az. Time Alt. Az. Time Alt. Az.
13 Aug 10.3 02:32:22 20° S 02:35:55 22° SSE 02:43:04 10° ESE visible
13 Aug 8.8 04:52:01 10° SW 05:03:04 48° SSE 05:09:06 10° E visible
14 Aug 10.7 01:25:09 15° SE 01:25:09 15° SE 01:29:44 10° ESE visible
14 Aug 9.4 03:42:25 18° SSW 03:51:22 38° SSE 03:58:28 10° E visible
15 Aug 10.0 02:35:09 26° S 02:39:08 30° SSE 02:47:19 10° E visible
15 Aug 8.6 04:54:22 10° WSW 05:06:15 59° SSE 05:12:30 10° E visible
16 Aug 10.5 01:27:52 22° SE 01:27:52 22° SE 01:35:09 10° ESE visible
16 Aug 9.2 03:45:08 21° SW 03:54:31 48° SSE 04:02:00 10° E visible
17 Aug 11.0 00:20:31 10° ESE 00:20:31 10° ESE 00:20:44 10° ESE visible
17 Aug 9.8 02:37:47 32° S 02:42:17 38° SSE 02:51:07 10° E visible
18 Aug 10.3 01:30:25 30° SE 01:30:25 30° SE 01:39:32 10° E visible
18 Aug 9.0 03:47:41 22° SW 03:57:39 58° SSE 04:05:25 10° E visible
19 Aug 10.8 00:23:01 17° ESE 00:23:01 17° ESE 00:26:35 10° ESE visible
19 Aug 9.6 02:40:16 38° SSW 02:45:23 48° SSE 02:54:41 10° E visible
19 Aug 8.5 04:59:34 10° WSW 05:12:34 77° S 05:19:10 10° E visible
20 Aug 10.1 01:32:50 38° SSE 01:32:50 38° SSE 01:43:25 10° E visible
20 Aug 8.9 03:50:05 22° WSW 04:00:45 68° SSE 04:08:45 10° E visible
21 Aug 10.6 00:25:21 23° ESE 00:25:21 23° ESE 00:31:10 10° E visible
21 Aug 9.4 02:42:36 41° SSW 02:48:25 57° SSE 02:58:06 10° E visible
22 Aug 9.9 01:35:05 47° SSE 01:35:30 47° SSE 01:47:00 10° E visible
22 Aug 8.9 03:52:20 22° WSW 04:03:51 75° S 04:12:04 10° E visible
